timestamp,surface_pressure_avg,surface_temp_avg,battery_voltage,lat,long
2021-02-24 00:09:01+00:00,280.3348,1.3,12.65,47.84626,-54.09684
2021-02-24 00:19:01+00:00,276.1097,1.3,12.57,47.84626,-54.09684
2021-02-24 00:29:01+00:00,272.938,1.3,12.57,47.84626,-54.09684
2021-02-24 00:39:01+00:00,265.5497,1.3,12.57,47.84626,-54.09684
2021-02-24 00:49:01+00:00,265.578,1.3,12.57,47.84626,-54.09684
2021-02-24 00:59:01+00:00,265.7931,1.3,12.57,47.84626,-54.09684
2021-02-24 01:09:01+00:00,260.0197,1.3,12.57,47.84626,-54.09684
2021-02-24 01:19:01+00:00,248.8714,1.3,12.57,47.84626,-54.09684
2021-02-24 01:29:01+00:00,245.0098,1.3,12.57,47.84626,-54.09684
2021-02-24 01:39:01+00:00,245.8564,1.3,12.57,47.84626,-54.09684
2021-02-24 01:49:01+00:00,243.9965,1.33,12.57,47.84626,-54.09684
2021-02-24 01:59:01+00:00,236.3448,1.32,12.57,47.84626,-54.09684
2021-02-24 02:09:01+00:00,235.2031,1.3,12.57,47.84626,-54.09684
2021-02-24 02:19:01+00:00,240.1698,1.3,12.57,47.84626,-54.09684
2021-02-24 02:29:01+00:00,238.0048,1.32,12.57,47.84626,-54.09684
2021-02-24 02:39:01+00:00,236.1997,1.32,12.57,47.84626,-54.09684
2021-02-24 02:49:01+00:00,238.3948,1.34,12.57,47.84626,-54.09684
2021-02-24 02:59:01+00:00,234.9131,1.37,12.57,47.84626,-54.09684
2021-02-24 03:09:01+00:00,230.9048,1.39,12.57,47.84626,-54.09684
2021-02-24 03:19:01+00:00,232.2065,1.39,12.57,47.84626,-54.09684
2021-02-24 03:29:01+00:00,236.1281,1.4,12.57,47.84626,-54.09684
2021-02-24 03:39:01+00:00,239.7697,1.4,12.57,47.84626,-54.09684
2021-02-24 03:49:01+00:00,237.2431,1.4,12.57,47.84626,-54.09684
2021-02-24 03:59:01+00:00,233.4364,1.4,12.57,47.84626,-54.09684
2021-02-24 04:09:01+00:00,238.5731,1.4,12.57,47.84626,-54.09684
2021-02-24 04:19:01+00:00,245.9231,1.4,12.49,47.84626,-54.09684
2021-02-24 04:29:01+00:00,246.1264,1.4,12.49,47.84626,-54.09684
2021-02-24 04:39:01+00:00,246.0031,1.4,12.49,47.84626,-54.09684
2021-02-24 04:49:01+00:00,247.2798,1.4,12.49,47.84626,-54.09684
2021-02-24 04:59:01+00:00,244.4781,1.4,12.49,47.84626,-54.09684
2021-02-24 05:09:01+00:00,245.0914,1.4,12.49,47.84626,-54.09684
2021-02-24 05:19:01+00:00,250.4297,1.4,12.49,47.84626,-54.09684
2021-02-24 05:29:01+00:00,252.0281,1.4,12.49,47.84626,-54.09684
2021-02-24 05:39:01+00:00,254.9598,1.4,12.49,47.84626,-54.09684
2021-02-24 05:49:01+00:00,263.9848,1.4,12.49,47.84626,-54.09684
2021-02-24 05:59:01+00:00,274.8864,1.4,12.49,47.84626,-54.09684
2021-02-24 06:09:01+00:00,279.748,1.4,12.49,47.84626,-54.09684
2021-02-24 06:19:01+00:00,280.4497,1.4,12.49,47.84626,-54.09684
2021-02-24 06:29:01+00:00,277.3781,1.33,12.49,47.84626,-54.09684
2021-02-24 06:39:01+00:00,282.8214,1.3,12.49,47.84626,-54.09684
2021-02-24 06:49:01+00:00,287.6664,1.3,12.49,47.84626,-54.09684
2021-02-24 06:59:01+00:00,289.3063,1.3,12.49,47.84626,-54.09684
2021-02-24 07:09:01+00:00,292.8264,1.3,12.49,47.84626,-54.09684
2021-02-24 07:19:01+00:00,304.4497,1.29,12.49,47.84626,-54.09684
2021-02-24 07:29:01+00:00,308.0747,1.26,12.49,47.84626,-54.09684
2021-02-24 07:39:01+00:00,307.7214,1.23,12.49,47.84626,-54.09684
2021-02-24 07:49:01+00:00,312.21299999999997,1.21,12.49,47.84626,-54.09684
2021-02-24 07:59:01+00:00,320.5198,1.2,12.49,47.84626,-54.09684
2021-02-24 08:09:01+00:00,323.358,1.2,12.49,47.84626,-54.09684
2021-02-24 08:19:01+00:00,320.3813,1.2,12.49,47.84626,-54.09684
2021-02-24 08:29:01+00:00,325.6979,1.2,12.49,47.84626,-54.09684
2021-02-24 08:39:01+00:00,336.648,1.21,12.49,47.84626,-54.09684
2021-02-24 08:49:01+00:00,334.2346,1.2,12.49,47.84626,-54.09684
2021-02-24 08:59:01+00:00,332.653,1.22,12.49,47.84626,-54.09684
2021-02-24 09:09:01+00:00,343.4213,1.25,12.49,47.84626,-54.09684
2021-02-24 09:19:01+00:00,349.3463,1.27,12.49,47.84626,-54.09684
2021-02-24 09:29:01+00:00,349.1063,1.27,12.49,47.84626,-54.09684
2021-02-24 09:39:01+00:00,356.4529,1.28,12.49,47.84626,-54.09684
2021-02-24 09:49:01+00:00,357.6412,1.29,12.49,47.84626,-54.09684
2021-02-24 09:59:01+00:00,349.0197,1.29,12.49,47.84626,-54.09684
2021-02-24 10:09:01+00:00,349.06800000000015,1.29,12.49,47.84626,-54.09684
2021-02-24 10:19:01+00:00,352.8113,1.29,12.49,47.84626,-54.09684
2021-02-24 10:29:01+00:00,350.0596,1.3,12.49,47.84626,-54.09684
2021-02-24 10:39:01+00:00,346.3646,1.3,12.49,47.84626,-54.09684
2021-02-24 10:49:01+00:00,348.1063,1.3,12.49,47.84626,-54.09684
2021-02-24 10:59:01+00:00,343.0363,1.3,12.49,47.84626,-54.09684
2021-02-24 11:09:01+00:00,337.0896,1.3,12.49,47.84626,-54.09684
2021-02-24 11:19:01+00:00,337.0646,1.3,12.49,47.84626,-54.09684
2021-02-24 11:29:01+00:00,331.5063,1.3,12.49,47.84626,-54.09684
2021-02-24 11:39:01+00:00,327.2679,1.3,12.49,47.84626,-54.09684
2021-02-24 11:49:01+00:00,327.253,1.3,12.49,47.84626,-54.09684
2021-02-24 11:59:01+00:00,322.3047,1.3,12.49,47.84626,-54.09684
2021-02-24 12:09:01+00:00,313.9047,1.28,12.49,47.84626,-54.09684
2021-02-24 12:19:01+00:00,314.5163,1.27,13.05,47.84626,-54.09684
2021-02-24 12:29:01+00:00,312.3362,1.27,13.05,47.84626,-54.09684
2021-02-24 12:39:01+00:00,301.703,1.24,13.05,47.84626,-54.09684
2021-02-24 12:49:01+00:00,296.6246,1.23,13.05,47.84626,-54.09684
2021-02-24 12:59:01+00:00,301.3246,1.26,13.05,47.84626,-54.09684
2021-02-24 13:09:01+00:00,298.5381,1.24,13.05,47.84626,-54.09684
2021-02-24 13:19:01+00:00,283.1664,1.22,13.29,47.84626,-54.09684
2021-02-24 13:29:01+00:00,276.048,1.26,13.29,47.84626,-54.09684
2021-02-24 13:39:01+00:00,279.1614,1.27,13.29,47.84626,-54.09684
2021-02-24 13:49:01+00:00,270.3097,1.29,13.29,47.84626,-54.09684
2021-02-24 13:59:01+00:00,254.2614,1.3,13.29,47.84626,-54.09684
2021-02-24 14:09:01+00:00,251.3247,1.3,13.29,47.84626,-54.09684
2021-02-24 14:19:01+00:00,258.6298,1.3,13.92,47.84626,-54.09684
2021-02-24 14:29:01+00:00,252.6497,1.3,13.92,47.84626,-54.09684
2021-02-24 14:39:01+00:00,244.5464,1.3,13.92,47.84626,-54.09684
2021-02-24 14:49:01+00:00,246.0648,1.3,13.92,47.84626,-54.09684
2021-02-24 14:59:01+00:00,244.2647,1.33,13.92,47.84626,-54.09684
2021-02-24 15:09:01+00:00,236.6014,1.37,13.92,47.84626,-54.09684
2021-02-24 15:19:01+00:00,233.8665,1.39,14.32,47.84626,-54.09684
2021-02-24 15:29:01+00:00,238.2547,1.4,14.32,47.84626,-54.09684
2021-02-24 15:39:01+00:00,237.9197,1.4,14.32,47.84626,-54.09684
2021-02-24 15:49:01+00:00,237.1447,1.4,14.32,47.84626,-54.09684
2021-02-24 15:59:01+00:00,238.1131,1.4,14.32,47.84626,-54.09684
2021-02-24 16:09:01+00:00,237.8031,1.4,14.32,47.84626,-54.09684
2021-02-24 16:19:01+00:00,234.0914,1.39,14.16,47.84626,-54.09684
2021-02-24 16:29:01+00:00,235.0931,1.39,14.16,47.84626,-54.09684
2021-02-24 16:39:01+00:00,237.0381,1.38,14.16,47.84626,-54.09684
2021-02-24 16:49:01+00:00,236.8231,1.39,14.16,47.84626,-54.09684
2021-02-24 16:59:01+00:00,234.4031,1.39,14.16,47.84626,-54.09684
2021-02-24 17:09:01+00:00,237.3797,1.4,14.16,47.84626,-54.09684
2021-02-24 17:19:01+00:00,241.3748,1.4,14.24,47.84626,-54.09684
2021-02-24 17:29:01+00:00,240.2448,1.4,14.24,47.84626,-54.09684
2021-02-24 17:39:01+00:00,238.1564,1.4,14.24,47.84626,-54.09684
2021-02-24 17:49:01+00:00,242.3498,1.4,14.24,47.84626,-54.09684
2021-02-24 17:59:01+00:00,246.03799999999998,1.4,14.24,47.84626,-54.09684
2021-02-24 18:09:01+00:00,245.5614,1.4,14.24,47.84626,-54.09684
2021-02-24 18:19:01+00:00,254.0514,1.4,14.24,47.84626,-54.09684
2021-02-24 18:29:01+00:00,265.373,1.4,14.24,47.84626,-54.09684
2021-02-24 18:39:01+00:00,269.3247,1.41,14.24,47.84626,-54.09684
2021-02-24 18:49:01+00:00,269.9231,1.44,14.24,47.84626,-54.09684
2021-02-24 18:59:01+00:00,279.888,1.41,14.24,47.84626,-54.09684
2021-02-24 19:09:01+00:00,285.2464,1.4,14.24,47.84626,-54.09684
2021-02-24 19:19:01+00:00,282.3814,1.4,14.4,47.84626,-54.09684
2021-02-24 19:29:01+00:00,282.473,1.4,14.4,47.84626,-54.09684
2021-02-24 19:39:01+00:00,290.8997,1.4,14.4,47.84626,-54.09684
2021-02-24 19:49:01+00:00,294.6247,1.4,14.4,47.84626,-54.09684
2021-02-24 19:59:01+00:00,297.8214,1.4,14.4,47.84626,-54.09684
2021-02-24 20:09:01+00:00,309.348,1.4,14.4,47.84626,-54.09684
2021-02-24 20:19:01+00:00,315.238,1.4,13.92,47.84626,-54.09684
2021-02-24 20:29:01+00:00,312.0348,1.4,13.92,47.84626,-54.09684
2021-02-24 20:39:01+00:00,318.613,1.4,13.92,47.84626,-54.09684
2021-02-24 20:49:01+00:00,328.4728,1.4,13.92,47.84626,-54.09684
2021-02-24 20:59:01+00:00,324.8663,1.4,13.92,47.84626,-54.09684
2021-02-24 21:09:01+00:00,325.0731,1.4,13.92,47.84626,-54.09684
2021-02-24 21:19:01+00:00,331.6397,1.4,13.53,47.84626,-54.09684
2021-02-24 21:29:01+00:00,331.3079,1.4,13.53,47.84626,-54.09684
2021-02-24 21:39:01+00:00,325.878,1.4,13.53,47.84626,-54.09684
2021-02-24 21:49:01+00:00,337.8013,1.4,13.53,47.84626,-54.09684
2021-02-24 21:59:01+00:00,349.9664,1.4,13.53,47.84626,-54.09684
2021-02-24 22:09:01+00:00,344.8546,1.39,13.53,47.84626,-54.09684
2021-02-24 22:19:01+00:00,336.778,1.39,13.13,47.84626,-54.09684
2021-02-24 22:29:01+00:00,342.3846,1.4,13.13,47.84626,-54.09684
2021-02-24 22:39:01+00:00,345.6879,1.39,13.13,47.84626,-54.09684
2021-02-24 22:49:01+00:00,334.7164,1.38,13.13,47.84626,-54.09684
2021-02-24 22:59:01+00:00,330.9913,1.39,13.13,47.84626,-54.09684
2021-02-24 23:09:01+00:00,335.5496,1.4,13.13,47.84626,-54.09684
2021-02-24 23:19:01+00:00,335.5763,1.38,12.81,47.84626,-54.09684
2021-02-24 23:29:01+00:00,326.9913,1.38,12.81,47.84626,-54.09684
2021-02-24 23:39:01+00:00,321.4496,1.39,12.81,47.84626,-54.09684
2021-02-24 23:49:01+00:00,317.6997,1.4,12.81,47.84626,-54.09684
2021-02-24 23:59:01+00:00,314.3647,1.39,12.81,47.84626,-54.09684
